Regional Weather Roundup
Issued by NWS

Home | Current Version | Previous Version | Graphics & Text | Print | Product List | Glossary On
Versions: 1 2 3 4 5 6 7 8 9 10 11 12 13 14 15 16 17 18 19 20 21 22 23 24 25 26 27 28 29 30 31 32 33 34 35 36 37 38 39 40 41 42 43 44 45 46 47 48 49 50
000
ASUS43 KDMX 310107
RWRIA

WEATHER ROUNDUP FOR IOWA
NATIONAL WEATHER SERVICE DES MOINES IA
800 PM CDT WED JUL 30 2014

NOTE: "FAIR" INDICATES FEW OR NO CLOUDS BELOW 12,000 FEET WITH NO
SIGNIFICANT WEATHER AND/OR OBSTRUCTIONS TO VISIBILITY.

* - THESE STATIONS ARE NOT NWS STATIONS...THUS NOT UNDER NWS
QUALITY CONTROL.  THEY ALSO DO NOT REPORT WEATHER SUCH
AS PRECIPITATION OR FOG.

IAZ001>003-012>014-020>022-031>034-043>046-310200-
   NORTHWEST IOWA

CITY           SKY/WX    TMP DP  RH WIND       PRES   REMARKS
CARROLL *      CLEAR     72  64  78 CALM      30.10R
CHEROKEE *     PTCLDY    73  59  60 CALM      30.10S
DENISON *      CLEAR     73  57  56 CALM      30.09R
LE MARS *      CLEAR     75  59  57 CALM      30.11S
ORANGE CITY *  CLEAR     75  57  53 CALM      30.11S
SHELDON *      CLEAR     72  63  73 CALM      30.09S
SIOUX CITY     CLEAR     75  55  49 E3        30.10S
SPENCER        CLEAR     73  62  68 CALM      30.10S
STORM LAKE *   CLEAR     72  63  73 CALM      30.12R
$$

IAZ055>058-069>071-079>083-090>094-310200-
   SOUTHWEST IOWA

CITY           SKY/WX    TMP DP  RH WIND       PRES   REMARKS
ATLANTIC *     CLEAR    N/A N/A N/A NW5       30.09S
AUDUBON *      CLEAR     75  61  60 CALM      30.12R
CLARINDA *     CLEAR     72  61  68 N5        30.10S
COUNCIL BLFS * CLEAR     73  59  60 NE3       30.09S
CRESTON *      CLEAR     72  57  60 NE5       30.10S
HARLAN  *      CLEAR     72  64  78 CALM      30.14R
LAMONI         CLEAR     73  58  59 N5        30.08S
RED OAK *      CLEAR     73  59  60 N5        30.10R
SHENANDOAH *   CLEAR     72  64  78 N5        30.10R
$$

IAZ047>049-059>061-072>074-084-310200-
   CENTRAL IOWA

CITY           SKY/WX    TMP DP  RH WIND       PRES   REMARKS
AMES           CLEAR     71  60  68 W6        30.08R
ANKENY *       CLEAR     75  55  50 NW6       30.07S
CHARITON *     CLEAR     73  61  64 CALM      30.08S
DES MOINES     PTCLDY    77  54  44 N5        30.07R
GRINNELL*      CLEAR     72  63  73 CALM      30.08R
KNOXVILLE *    CLEAR     75  57  53 CALM      30.06S
MARSHALLTOWN   CLEAR     73  65  75 W3        30.06S
PELLA *        CLEAR     73  61  64 CALM      30.08R
PERRY *          N/A     72  64  78 NW3       30.09R
$$

IAZ004>006-015-016-023>025-035-036-310200-
   NORTH CENTRAL IOWA

CITY           SKY/WX    TMP DP  RH WIND       PRES   REMARKS
ALGONA *       CLEAR     73  59  60 NW5       30.09S
CLARION *      CLEAR     72  63  73 NW3       30.08S
ESTHERVILLE    CLEAR     71  57  61 NW5       30.10R
FORT DODGE *   CLEAR     72  63  73 CALM      30.10R
MASON CITY     CLEAR     71  61  70 W5        30.09S
FOREST CITY *  CLEAR     70  61  73 E5        30.08S
IOWA FALLS *     N/A     72  63  73 W5        30.09R
$$

IAZ007>011-017>019-026>030-037>042-050>054-066-310200-
   NORTHEAST IOWA

CITY           SKY/WX    TMP DP  RH WIND       PRES   REMARKS
CEDAR RAPIDS   CLEAR     74  62  66 NW3       30.04S
CHARLES CITY * PTCLDY    72  66  83 CALM      30.06S
CLINTON *      CLEAR     70  63  78 NW3       30.06S
DECORAH *      CLEAR     72  59  64 CALM      30.04S
DUBUQUE        CLEAR     70  61  73 NW3       30.05S
MONTICELLO *   CLEAR     72  64  78 NW3       30.04S
OELWEIN *      CLEAR     72  64  78 W6        30.06S
WATERLOO       CLEAR     74  59  59 W5        30.04S
$$

IAZ064-065-067-068-078-310200-
   EAST CENTRAL IOWA

CITY           SKY/WX    TMP DP  RH WIND       PRES   REMARKS
DAVENPORT      CLEAR     71  61  70 NW5       30.04S
IOWA CITY      CLEAR     75  60  59 NW6       30.05S
MT. PLEASANT * CLEAR     75  57  53 W3        30.06R
MUSCATINE *    CLEAR     75  61  60 W5        30.04S
QUAD CITIES    CLEAR     76  58  53 NW7       30.03S
$$

IAZ062-063-075>077-085>089-095>099-310200-
   SOUTHEAST IOWA

CITY           SKY/WX    TMP DP  RH WIND       PRES   REMARKS
BURLINGTON     CLEAR     73  65  75 CALM      30.05R
FAIRFIELD *    CLEAR     72  64  78 NW5       30.07R
FORT MADISON * CLEAR     72  66  83 CALM      30.06S
KEOKUK *       CLEAR     73  63  68 W5        30.05S
OSKALOOSA *      N/A     72  64  78 NW3       30.07S
CENTERVILLE *  CLEAR     72  64  78 N3        30.09S
OTTUMWA        CLEAR     72  62  71 W3        30.07R
WASHINGTON *   CLEAR     73  63  68 W5        30.06R
$$

ABBREVIATIONS USED IN REMARKS
   TC - TEMPERATURES IN CELSIUS
  WCI - WIND CHILL INDEX
   HX - HEAT INDEX
  VSB - VISIBILITY
$$



USA.gov is the U.S. government's official web portal to all federal, state and local government web resources and services.